Back to catalog

USA 40 R/B DEB

AliveHEO
NORAD 23353·DEBRIS·🇺🇸 United States

Launched Aug 8, 1989 from Cape Canaveral Space Force Station

Loading…

Next Passes (next 24 hours)

TLE

FreshSource: Space-Track

Epoch: Sep 14, 2026, 13:01 UTC

1 23353U 89061Z   26257.54294060  .00003615  00000-0  27929-2 0  9998
2 23353  56.9635 307.2909 2821223 184.3091 172.7457  9.20700297 81039

Track USA 40 R/B DEB in real time with AllMySat

Download on the App Store